Zurück zum Katalog

COSMOS 2251 DEB

AktivLEO
NORAD 34008·DEBRIS·🇷🇺 Russia

Gestartet Jun 16, 1993 von Plesetsk Cosmodrome

Loading…

Nächste Überflüge (nächste 24 Stunden)

TLE

AktuellSource: Space-Track

Epoche: Sep 14, 2026, 12:02 UTC

1 34008U 93036GT  26257.50178534  .00000164  00000-0  68729-4 0  9998
2 34008  74.0348 186.4882 0022424 119.5598   1.5567 14.33295326919159

Verfolge COSMOS 2251 DEB in Echtzeit mit AllMySat

Download on the App Store